Tracking 35334 objects as of 13-Sep-2026
HD Live streaming from Space Station
objects crossing your sky now

STARLINK-6194

Track STARLINK-6194 now!
10-day predictions
STARLINK-6194 is classified as:


NORAD ID: 57077
Int'l Code: 2023-088AF
Launch date: June 22, 2023
Source: United States (US)
Launch site: AIR FORCE WESTERN TEST RANGE (AFWTR)
Your satellite tracking list
Your tracking list is empty




NASA's NSSDC Master Catalog

Two Line Element Set (TLE):
1 57077U 23088AF  26256.00546173 -.00000771  00000-0 -18491-4 0  9998
2 57077  43.0034 118.6312 0001091 278.7714  81.3014 15.27572727179303
Source of the keplerian elements: AFSPC